• In Schweiz
  • Länderverzeichnis
  • Für 7 Tage
  • Wassertemperatur
  • Satellitenkarten
  • Wetterkarte
  • Widgets
  • user-avatar
    Anmelden

    Stündliche Wetter Bern

    Heute, 12 Dezember, Dienstag

    Zeit Temperatur Niederschläge Wind Luftdruck Luftfeuchtigkeit
    00:00 +2°C° 0 mm 5 m/S 699 mmHg 89%
    01:00 +1°C° 0,2 mm 4 m/S 700 mmHg 90%
    02:00 +1°C° 0,2 mm 4 m/S 701 mmHg 91%
    03:00 +1°C° 0,2 mm 3 m/S 703 mmHg 92%
    04:00 0°C° 0,2 mm 3 m/S 704 mmHg 92%
    05:00 +1°C° 0,2 mm 2 m/S 705 mmHg 93%
    06:00 +1°C° 0,2 mm 2 m/S 706 mmHg 93%
    07:00 +1°C° 0,2 mm 2 m/S 707 mmHg 93%
    08:00 +1°C° 0,2 mm 2 m/S 708 mmHg 93%
    09:00 +2°C° 0,2 mm 1 m/S 708 mmHg 92%
    10:00 +2°C° 0,2 mm 2 m/S 709 mmHg 91%
    11:00 +2°C° 0,2 mm 2 m/S 710 mmHg 90%
    12:00 +2°C° 0,2 mm 2 m/S 710 mmHg 89%
    13:00 +2°C° 0,2 mm 2 m/S 711 mmHg 90%
    14:00 +2°C° 0,2 mm 2 m/S 711 mmHg 91%
    15:00 +2°C° 0,2 mm 2 m/S 712 mmHg 92%
    16:00 +1°C° 0 mm 1 m/S 712 mmHg 92%
    17:00 0°C° 0 mm 1 m/S 713 mmHg 93%
    18:00 -1°C° 0 mm 1 m/S 713 mmHg 94%
    19:00 -1°C° 0 mm 1 m/S 714 mmHg 94%
    20:00 -1°C° 0 mm 1 m/S 715 mmHg 93%
    21:00 -4°C° 0 mm 2 m/S 716 mmHg 93%
    22:00 -4°C° 0 mm 2 m/S 716 mmHg 92%
    23:00 -5°C° 0 mm 2 m/S 716 mmHg 91%

    Morgen, 13 Dezember, Mittwoch

    Zeit Temperatur Niederschläge Wind Luftdruck Luftfeuchtigkeit
    00:00 -5°C° 0 mm 2 m/S 716 mmHg 90%
    01:00 -5°C° 0 mm 2 m/S 717 mmHg 88%
    02:00 -6°C° 0 mm 2 m/S 717 mmHg 86%
    03:00 -6°C° 0 mm 2 m/S 717 mmHg 84%
    04:00 -6°C° 0 mm 2 m/S 717 mmHg 83%
    05:00 -6°C° 0 mm 2 m/S 717 mmHg 82%
    06:00 -6°C° 0 mm 2 m/S 717 mmHg 81%
    07:00 -5°C° 0 mm 2 m/S 716 mmHg 78%
    08:00 -4°C° 0 mm 3 m/S 716 mmHg 75%
    09:00 -2°C° 0 mm 3 m/S 716 mmHg 73%
    10:00 0°C° 0 mm 3 m/S 715 mmHg 72%
    11:00 +2°C° 0 mm 3 m/S 714 mmHg 71%
    12:00 +3°C° 0 mm 3 m/S 713 mmHg 70%
    13:00 +3°C° 0,5 mm 3 m/S 713 mmHg 74%
    14:00 +3°C° 0,5 mm 3 m/S 712 mmHg 78%
    15:00 +2°C° 0,5 mm 3 m/S 712 mmHg 82%
    16:00 +3°C° 0,6 mm 3 m/S 712 mmHg 83%
    17:00 +3°C° 0,6 mm 4 m/S 712 mmHg 85%
    18:00 +3°C° 0,6 mm 4 m/S 711 mmHg 86%
    19:00 +3°C° 0,7 mm 4 m/S 711 mmHg 87%
    20:00 +3°C° 0,7 mm 4 m/S 710 mmHg 88%
    21:00 +4°C° 0,7 mm 4 m/S 710 mmHg 89%
    22:00 +4°C° 0,5 mm 4 m/S 709 mmHg 89%
    23:00 +3°C° 0,5 mm 5 m/S 709 mmHg 90%

    übermorgen, 14 Dezember, Donnerstag

    Zeit Temperatur Niederschläge Wind Luftdruck Luftfeuchtigkeit
    00:00 +5°C° 0,5 mm 5 m/S 709 mmHg 90%
    01:00 +5°C° 0,4 mm 5 m/S 709 mmHg 90%
    02:00 +5°C° 0,4 mm 5 m/S 709 mmHg 91%
    03:00 +5°C° 0,4 mm 5 m/S 708 mmHg 92%
    04:00 +5°C° 0,5 mm 5 m/S 708 mmHg 92%
    05:00 +5°C° 0,5 mm 4 m/S 708 mmHg 93%
    06:00 +5°C° 0,5 mm 4 m/S 708 mmHg 93%
    07:00 +5°C° 0,5 mm 4 m/S 708 mmHg 93%
    08:00 +5°C° 0,5 mm 4 m/S 708 mmHg 92%
    09:00 +4°C° 0,5 mm 4 m/S 708 mmHg 92%
    10:00 +5°C° 0,3 mm 4 m/S 708 mmHg 90%
    11:00 +5°C° 0,3 mm 4 m/S 707 mmHg 89%
    12:00 +5°C° 0,3 mm 4 m/S 707 mmHg 87%
    13:00 +5°C° 0,2 mm 5 m/S 706 mmHg 88%
    14:00 +5°C° 0,2 mm 5 m/S 705 mmHg 88%
    15:00 +5°C° 0,2 mm 5 m/S 705 mmHg 88%
    16:00 +5°C° 0,4 mm 5 m/S 704 mmHg 88%
    17:00 +5°C° 0,4 mm 5 m/S 704 mmHg 88%
    18:00 +4°C° 0,4 mm 6 m/S 703 mmHg 88%
    19:00 +4°C° 1,1 mm 6 m/S 703 mmHg 87%
    20:00 +4°C° 1,1 mm 7 m/S 704 mmHg 87%
    21:00 +4°C° 1,1 mm 7 m/S 704 mmHg 87%
    22:00 +3°C° 1,8 mm 6 m/S 704 mmHg 89%
    23:00 +2°C° 1,8 mm 5 m/S 704 mmHg 91%

    15 Dezember, Freitag

    Zeit Temperatur Niederschläge Wind Luftdruck Luftfeuchtigkeit
    00:00 +3°C° 1,8 mm 3 m/S 704 mmHg 92%
    01:00 +2°C° 1,1 mm 3 m/S 704 mmHg 92%
    02:00 +2°C° 1,1 mm 3 m/S 703 mmHg 92%
    03:00 +1°C° 1,1 mm 3 m/S 703 mmHg 91%
    04:00 +1°C° 0,5 mm 3 m/S 704 mmHg 91%
    05:00 +1°C° 0,5 mm 3 m/S 704 mmHg 91%
    06:00 0°C° 0,5 mm 3 m/S 704 mmHg 91%
    07:00 0°C° 0,1 mm 3 m/S 704 mmHg 89%
    08:00 +1°C° 0,1 mm 3 m/S 704 mmHg 88%
    09:00 0°C° 0,1 mm 4 m/S 705 mmHg 86%
    10:00 0°C° 0,1 mm 4 m/S 704 mmHg 85%
    11:00 +1°C° 0,1 mm 4 m/S 704 mmHg 83%
    12:00 +1°C° 0,1 mm 5 m/S 704 mmHg 82%
    13:00 +1°C° 0,4 mm 5 m/S 704 mmHg 84%
    14:00 0°C° 0,4 mm 4 m/S 704 mmHg 87%
    15:00 0°C° 0,4 mm 4 m/S 705 mmHg 89%
    16:00 -1°C° 0,3 mm 4 m/S 705 mmHg 90%
    17:00 0°C° 0,3 mm 3 m/S 706 mmHg 91%
    18:00 -1°C° 0,3 mm 3 m/S 706 mmHg 92%
    19:00 -1°C° 0,5 mm 3 m/S 706 mmHg 92%
    20:00 0°C° 0,5 mm 3 m/S 707 mmHg 92%
    21:00 -1°C° 0,5 mm 4 m/S 707 mmHg 92%
    22:00 -2°C° 0,5 mm 4 m/S 708 mmHg 92%
    23:00 -2°C° 0,5 mm 4 m/S 708 mmHg 92%

    16 Dezember, Samstag

    Zeit Temperatur Niederschläge Wind Luftdruck Luftfeuchtigkeit
    00:00 -1°C° 0,5 mm 3 m/S 709 mmHg 93%
    01:00 -1°C° 0,2 mm 3 m/S 709 mmHg 93%
    02:00 -1°C° 0,2 mm 3 m/S 710 mmHg 93%
    03:00 -1°C° 0,2 mm 2 m/S 711 mmHg 93%
    04:00 -2°C° 0,1 mm 2 m/S 711 mmHg 93%
    05:00 -2°C° 0,1 mm 2 m/S 712 mmHg 93%
    06:00 -3°C° 0,1 mm 2 m/S 712 mmHg 93%
    07:00 -3°C° 0 mm 2 m/S 713 mmHg 91%
    08:00 -3°C° 0 mm 2 m/S 713 mmHg 89%
    09:00 -2°C° 0 mm 2 m/S 713 mmHg 87%
    10:00 -2°C° 0 mm 3 m/S 713 mmHg 85%
    11:00 -1°C° 0 mm 3 m/S 713 mmHg 82%
    12:00 0°C° 0 mm 3 m/S 713 mmHg 79%
    13:00 0°C° 0 mm 3 m/S 713 mmHg 82%
    14:00 -1°C° 0 mm 2 m/S 713 mmHg 84%
    15:00 -1°C° 0 mm 2 m/S 713 mmHg 87%
    16:00 -2°C° 0,1 mm 2 m/S 714 mmHg 86%
    17:00 -3°C° 0,1 mm 2 m/S 714 mmHg 86%
    18:00 -3°C° 0,1 mm 2 m/S 715 mmHg 86%
    19:00 -3°C° 0,2 mm 2 m/S 715 mmHg 86%
    20:00 -3°C° 0,2 mm 2 m/S 715 mmHg 86%
    21:00 -3°C° 0,2 mm 2 m/S 715 mmHg 87%
    22:00 -3°C° 0,2 mm 2 m/S 715 mmHg 88%
    23:00 -3°C° 0,2 mm 2 m/S 716 mmHg 88%

    17 Dezember, Sonntag

    Zeit Temperatur Niederschläge Wind Luftdruck Luftfeuchtigkeit
    00:00 -3°C° 0,2 mm 2 m/S 716 mmHg 89%
    01:00 -3°C° 0,2 mm 2 m/S 716 mmHg 90%
    02:00 -3°C° 0,2 mm 2 m/S 716 mmHg 90%
    03:00 -3°C° 0,2 mm 2 m/S 717 mmHg 91%
    04:00 -3°C° 0,3 mm 2 m/S 717 mmHg 92%
    05:00 -1°C° 0,3 mm 1 m/S 717 mmHg 92%
    06:00 -1°C° 0,3 mm 1 m/S 718 mmHg 93%
    07:00 -1°C° 0,1 mm 1 m/S 718 mmHg 92%
    08:00 -1°C° 0,1 mm 1 m/S 719 mmHg 91%
    09:00 0°C° 0,1 mm 1 m/S 719 mmHg 90%
    10:00 0°C° 0 mm 1 m/S 719 mmHg 88%
    11:00 +1°C° 0 mm 1 m/S 719 mmHg 86%
    12:00 +2°C° 0 mm 1 m/S 719 mmHg 85%
    13:00 +1°C° 0 mm 1 m/S 719 mmHg 87%
    14:00 0°C° 0 mm 1 m/S 719 mmHg 89%
    15:00 0°C° 0 mm 1 m/S 719 mmHg 91%
    16:00 -1°C° 0 mm 1 m/S 720 mmHg 91%
    17:00 -3°C° 0 mm 1 m/S 720 mmHg 92%
    18:00 -4°C° 0 mm 1 m/S 721 mmHg 93%
    19:00 -4°C° 0 mm 1 m/S 721 mmHg 91%
    20:00 -6°C° 0 mm 1 m/S 721 mmHg 89%
    21:00 -6°C° 0 mm 1 m/S 722 mmHg 88%
    22:00 -6°C° 0 mm 1 m/S 722 mmHg 86%
    23:00 -6°C° 0 mm 1 m/S 722 mmHg 84%
    Mehr zeigen